Location: Eagle Mountain
(38.8171°N, 119.4771°W)
Time: 17:58:59
(UTC+00:00)

Daily predictions for brighter satellites

Satellite Brightness Start Highest point End
(mag) Time Altitude Azimuth Time Altitude Azimuth Time Altitude Azimuth
Cosmos 1263 4.4 12:05:52 10° N 12:09:01 74° E 12:11:58 10° SSE
ADEOS II 4.2 12:09:15 10° NW 12:10:13 10° WNW 12:11:12 10° WNW
SL-8 R/B 3.9 12:05:26 10° WSW 12:10:14 72° NNW 12:15:02 10° NE
Cosmos 1464 Rocket 4.2 12:05:38 10° S 12:11:59 85° E 12:18:24 10° N
